ACA418 CYYZ-CYUL

Flight info

Callsign ACA418
Flight time 0h 48m
Altitude 33000
Route DEDKI5 MIGLO HABBS7
Aircraft A321/M-SDE3FGHIRWY/LB1

Departure

Time 2026-05-06 19:56
Airport Toronto Pearson International Airport (CYYZ)

Arrival

Time 2026-05-06 20:44
Airport Montreal / Pierre Elliott Trudeau International Airport (CYUL)
Time Latitude Longitude Altitude Speed Heading
2026-05-06 19:13 43.68107 -79.61545 570 ft 0 kts 98°
2026-05-06 19:44 43.68110 -79.61574 571 ft 4 kts 100°
2026-05-06 19:45 43.68116 -79.61610 568 ft 4 kts 103°
2026-05-06 19:45 43.68122 -79.61646 570 ft 4 kts 107°
2026-05-06 19:45 43.68131 -79.61682 571 ft 4 kts 112°
2026-05-06 19:45 43.68143 -79.61715 570 ft 4 kts 129°
2026-05-06 19:46 43.68161 -79.61734 569 ft 2 kts 173°
2026-05-06 19:46 43.68147 -79.61730 568 ft 4 kts 166°
2026-05-06 19:46 43.68124 -79.61734 566 ft 4 kts 208°
2026-05-06 19:46 43.68113 -79.61749 570 ft 0 kts 227°
2026-05-06 19:49 43.68112 -79.61750 570 ft 1 kts 227°
2026-05-06 19:49 43.68110 -79.61753 569 ft 2 kts 227°
2026-05-06 19:49 43.68075 -79.61804 563 ft 12 kts 226°
2026-05-06 19:49 43.68016 -79.61892 563 ft 12 kts 232°
2026-05-06 19:50 43.67982 -79.61990 563 ft 11 kts 248°
2026-05-06 19:50 43.67919 -79.62092 568 ft 20 kts 221°
2026-05-06 19:50 43.67812 -79.62093 571 ft 15 kts 141°
2026-05-06 19:50 43.67742 -79.62002 566 ft 13 kts 138°
2026-05-06 19:51 43.67648 -79.61881 568 ft 23 kts 136°
2026-05-06 19:51 43.67531 -79.61728 569 ft 23 kts 135°
2026-05-06 19:51 43.67416 -79.61580 568 ft 22 kts 136°
2026-05-06 19:51 43.67304 -79.61434 564 ft 22 kts 137°
2026-05-06 19:52 43.67203 -79.61348 568 ft 14 kts 192°
2026-05-06 19:52 43.67122 -79.61437 567 ft 15 kts 223°
2026-05-06 19:52 43.67045 -79.61534 570 ft 18 kts 222°
2026-05-06 19:52 43.66938 -79.61668 568 ft 21 kts 222°
2026-05-06 19:53 43.66834 -79.61799 571 ft 20 kts 223°
2026-05-06 19:53 43.66734 -79.61925 573 ft 19 kts 222°
2026-05-06 19:53 43.66640 -79.62043 571 ft 18 kts 222°
2026-05-06 19:53 43.66545 -79.62163 566 ft 18 kts 222°
2026-05-06 19:54 43.66453 -79.62280 569 ft 18 kts 223°
2026-05-06 19:54 43.66362 -79.62393 563 ft 18 kts 222°
2026-05-06 19:54 43.66257 -79.62401 562 ft 16 kts 145°
2026-05-06 19:54 43.66186 -79.62312 568 ft 12 kts 137°
2026-05-06 19:55 43.66184 -79.62223 564 ft 14 kts 50°
2026-05-06 19:55 43.66196 -79.62207 566 ft 0 kts 46°
2026-05-06 19:55 43.66322 -79.62027 572 ft 63 kts 46°
2026-05-06 19:55 43.66777 -79.61368 567 ft 123 kts 46°
2026-05-06 19:56 43.67466 -79.60364 680 ft 156 kts 44°
2026-05-06 19:56 43.68186 -79.59251 1258 ft 158 kts 46°
2026-05-06 19:56 43.68917 -79.58072 1848 ft 163 kts 48°
2026-05-06 19:56 43.69649 -79.56865 2423 ft 165 kts 47°
2026-05-06 19:57 43.70304 -79.55545 2964 ft 171 kts 60°
2026-05-06 19:57 43.70718 -79.53965 3415 ft 179 kts 75°
2026-05-06 19:57 43.70833 -79.52221 3887 ft 186 kts 91°
2026-05-06 19:57 43.70631 -79.50427 4331 ft 192 kts 105°
2026-05-06 19:58 43.70238 -79.48645 4793 ft 196 kts 111°
2026-05-06 19:58 43.69782 -79.46831 5200 ft 206 kts 111°
2026-05-06 19:58 43.69291 -79.44873 5444 ft 228 kts 110°
2026-05-06 19:58 43.68695 -79.42723 5739 ft 251 kts 113°
2026-05-06 19:59 43.68028 -79.40364 6119 ft 275 kts 113°
2026-05-06 19:59 43.67376 -79.37821 6762 ft 285 kts 111°
2026-05-06 19:59 43.66774 -79.35176 7505 ft 292 kts 110°
2026-05-06 19:59 43.66212 -79.32443 8270 ft 299 kts 109°
2026-05-06 20:00 43.65677 -79.29633 9009 ft 306 kts 108°
2026-05-06 20:00 43.65149 -79.26751 9757 ft 313 kts 109°
2026-05-06 20:00 43.64657 -79.23777 10265 ft 329 kts 102°
2026-05-06 20:00 43.64570 -79.20497 10461 ft 356 kts 88°
2026-05-06 20:01 43.64775 -79.16978 10682 ft 377 kts 88°
2026-05-06 20:01 43.64977 -79.13326 11224 ft 385 kts 88°
2026-05-06 20:01 43.65171 -79.09617 11859 ft 390 kts 88°
2026-05-06 20:01 43.65359 -79.05852 12498 ft 395 kts 89°
2026-05-06 20:02 43.65634 -79.02044 13098 ft 402 kts 83°
2026-05-06 20:02 43.66071 -78.98202 13735 ft 407 kts 83°
2026-05-06 20:02 43.66508 -78.94318 14315 ft 412 kts 83°
2026-05-06 20:02 43.66947 -78.90394 14908 ft 415 kts 83°
2026-05-06 20:03 43.67393 -78.86433 15497 ft 419 kts 83°
2026-05-06 20:03 43.67845 -78.82435 16096 ft 423 kts 83°
2026-05-06 20:03 43.68295 -78.78407 16672 ft 427 kts 83°
2026-05-06 20:03 43.68757 -78.74335 17243 ft 431 kts 81°
2026-05-06 20:04 43.69527 -78.70314 17811 ft 436 kts 71°
2026-05-06 20:04 43.70691 -78.66422 18347 ft 439 kts 67°
2026-05-06 20:04 43.71887 -78.62582 18829 ft 442 kts 67°
2026-05-06 20:04 43.73101 -78.58660 19299 ft 446 kts 67°
2026-05-06 20:05 43.74320 -78.54703 19756 ft 449 kts 67°
2026-05-06 20:05 43.75543 -78.50712 20209 ft 453 kts 67°
2026-05-06 20:05 43.76775 -78.46684 20666 ft 456 kts 67°
2026-05-06 20:05 43.78018 -78.42621 21115 ft 460 kts 67°
2026-05-06 20:06 43.79267 -78.38527 21559 ft 464 kts 68°
2026-05-06 20:06 43.80525 -78.34401 21998 ft 467 kts 67°
2026-05-06 20:06 43.81794 -78.30242 22433 ft 471 kts 67°
2026-05-06 20:06 43.83072 -78.26040 22839 ft 476 kts 68°
2026-05-06 20:07 43.84360 -78.21789 23191 ft 481 kts 68°
2026-05-06 20:07 43.85659 -78.17501 23570 ft 485 kts 68°
2026-05-06 20:07 43.86964 -78.13187 23928 ft 488 kts 68°
2026-05-06 20:07 43.88278 -78.08836 24308 ft 490 kts 68°
2026-05-06 20:08 43.89594 -78.04467 24696 ft 492 kts 68°
2026-05-06 20:08 43.90911 -78.00075 25068 ft 494 kts 68°
2026-05-06 20:08 43.92231 -77.95671 25421 ft 496 kts 68°
2026-05-06 20:08 43.93555 -77.91242 25828 ft 497 kts 67°
2026-05-06 20:09 43.94878 -77.86812 26217 ft 499 kts 67°
2026-05-06 20:09 43.96211 -77.82358 26582 ft 501 kts 67°
2026-05-06 20:09 43.97546 -77.77883 26944 ft 503 kts 67°
2026-05-06 20:09 43.98887 -77.73391 27301 ft 505 kts 67°
2026-05-06 20:10 44.00233 -77.68874 27655 ft 507 kts 68°
2026-05-06 20:10 44.01579 -77.64333 28009 ft 509 kts 68°
2026-05-06 20:10 44.02928 -77.59776 28351 ft 511 kts 68°
2026-05-06 20:10 44.04280 -77.55201 28687 ft 512 kts 68°
2026-05-06 20:11 44.05630 -77.50616 29042 ft 514 kts 68°
2026-05-06 20:11 44.06988 -77.46009 29366 ft 515 kts 66°
2026-05-06 20:11 44.08600 -77.41552 29675 ft 517 kts 58°
2026-05-06 20:11 44.10535 -77.37334 29985 ft 518 kts 55°
2026-05-06 20:12 44.12499 -77.33118 30252 ft 520 kts 56°
2026-05-06 20:12 44.14463 -77.28896 30605 ft 520 kts 56°
2026-05-06 20:12 44.16429 -77.24667 30930 ft 520 kts 56°
2026-05-06 20:12 44.18393 -77.20439 31225 ft 521 kts 55°
2026-05-06 20:13 44.20361 -77.16197 31542 ft 521 kts 56°
2026-05-06 20:13 44.22325 -77.11946 31861 ft 522 kts 56°
2026-05-06 20:13 44.24289 -77.07686 32191 ft 523 kts 56°
2026-05-06 20:13 44.26253 -77.03414 32542 ft 523 kts 56°
2026-05-06 20:14 44.28211 -76.99139 32906 ft 522 kts 56°
2026-05-06 20:14 44.30165 -76.94867 33259 ft 522 kts 56°
2026-05-06 20:14 44.32117 -76.90591 33601 ft 523 kts 56°
2026-05-06 20:14 44.34074 -76.86309 33920 ft 523 kts 56°
2026-05-06 20:15 44.36032 -76.82027 34177 ft 523 kts 56°
2026-05-06 20:15 44.37990 -76.77737 34402 ft 524 kts 56°
2026-05-06 20:15 44.39954 -76.73427 34658 ft 525 kts 56°
2026-05-06 20:15 44.41891 -76.69178 34926 ft 526 kts 56°
2026-05-06 20:16 44.43850 -76.64871 35236 ft 525 kts 56°
2026-05-06 20:16 44.45808 -76.60561 35476 ft 525 kts 56°
2026-05-06 20:16 44.47761 -76.56247 35704 ft 525 kts 56°
2026-05-06 20:16 44.49719 -76.51922 35869 ft 526 kts 56°
2026-05-06 20:17 44.53617 -76.43292 35904 ft 523 kts 56°
2026-05-06 20:17 44.57493 -76.34671 35900 ft 522 kts 56°
2026-05-06 20:18 44.61350 -76.26054 35895 ft 522 kts 56°
2026-05-06 20:18 44.64294 -76.18668 35897 ft 522 kts 67°
2026-05-06 20:19 44.67071 -76.09228 35903 ft 523 kts 68°
2026-05-06 20:19 44.68462 -76.04508 35569 ft 522 kts 68°
2026-05-06 20:19 44.69851 -75.99801 34985 ft 521 kts 68°
2026-05-06 20:20 44.71221 -75.95093 34471 ft 520 kts 69°
2026-05-06 20:20 44.72529 -75.90376 34005 ft 516 kts 70°
2026-05-06 20:20 44.73783 -75.85658 33416 ft 514 kts 71°
2026-05-06 20:20 44.75006 -75.80941 32695 ft 514 kts 71°
2026-05-06 20:21 44.76223 -75.76213 32043 ft 513 kts 71°
2026-05-06 20:21 44.77437 -75.71531 31567 ft 507 kts 71°
2026-05-06 20:21 44.78654 -75.66890 31081 ft 503 kts 71°
2026-05-06 20:21 44.79868 -75.62301 30601 ft 498 kts 71°
2026-05-06 20:22 44.81076 -75.57756 30127 ft 493 kts 70°
2026-05-06 20:22 44.82273 -75.53253 29625 ft 489 kts 71°
2026-05-06 20:22 44.83455 -75.48782 29064 ft 485 kts 71°
2026-05-06 20:22 44.84630 -75.44355 28518 ft 481 kts 70°
2026-05-06 20:23 44.85837 -75.39975 27956 ft 478 kts 69°
2026-05-06 20:23 44.87068 -75.35649 27419 ft 473 kts 69°
2026-05-06 20:23 44.88288 -75.31423 26928 ft 469 kts 69°
2026-05-06 20:23 44.89514 -75.27178 26414 ft 466 kts 69°
2026-05-06 20:24 44.90723 -75.22958 25900 ft 462 kts 69°
2026-05-06 20:24 44.91911 -75.18765 25388 ft 459 kts 69°
2026-05-06 20:24 44.93082 -75.14593 24889 ft 456 kts 69°
2026-05-06 20:24 44.94240 -75.10445 24399 ft 453 kts 69°
2026-05-06 20:25 44.95389 -75.06326 24002 ft 449 kts 69°
2026-05-06 20:25 44.96530 -75.02220 23848 ft 449 kts 69°
2026-05-06 20:25 44.97670 -74.98107 23915 ft 450 kts 70°
2026-05-06 20:25 44.98932 -74.94057 23894 ft 451 kts 62°
2026-05-06 20:26 45.00473 -74.90207 23882 ft 450 kts 60°
2026-05-06 20:26 45.02019 -74.86360 23838 ft 448 kts 60°
2026-05-06 20:26 45.03545 -74.82542 23353 ft 445 kts 60°
2026-05-06 20:26 45.05053 -74.78743 22790 ft 442 kts 60°
2026-05-06 20:27 45.06549 -74.74965 22246 ft 439 kts 60°
2026-05-06 20:27 45.08037 -74.71212 21704 ft 436 kts 61°
2026-05-06 20:27 45.09513 -74.67478 21199 ft 433 kts 61°
2026-05-06 20:27 45.10980 -74.63766 20691 ft 431 kts 61°
2026-05-06 20:28 45.12451 -74.60084 20214 ft 428 kts 60°
2026-05-06 20:28 45.13974 -74.56472 19730 ft 426 kts 58°
2026-05-06 20:28 45.15535 -74.52914 19263 ft 424 kts 58°
2026-05-06 20:28 45.17109 -74.49388 18817 ft 422 kts 57°
2026-05-06 20:29 45.18678 -74.45880 18362 ft 420 kts 58°
2026-05-06 20:29 45.20230 -74.42392 17917 ft 418 kts 58°
2026-05-06 20:29 45.21764 -74.38908 17458 ft 415 kts 58°
2026-05-06 20:29 45.23276 -74.35432 16955 ft 414 kts 58°
2026-05-06 20:30 45.24779 -74.31950 16434 ft 413 kts 58°
2026-05-06 20:30 45.27759 -74.25019 15446 ft 410 kts 59°
2026-05-06 20:30 45.29241 -74.21564 14958 ft 409 kts 59°
2026-05-06 20:31 45.30716 -74.18123 14475 ft 407 kts 58°
2026-05-06 20:31 45.32187 -74.14695 13999 ft 406 kts 58°
2026-05-06 20:31 45.33654 -74.11277 13510 ft 404 kts 58°
2026-05-06 20:31 45.34623 -74.09020 13161 ft 403 kts 58°
2026-05-06 20:32 45.35688 -74.06764 12793 ft 399 kts 51°
2026-05-06 20:32 45.37550 -74.03869 12273 ft 395 kts 41°
2026-05-06 20:32 45.39548 -74.01201 11766 ft 392 kts 41°
2026-05-06 20:32 45.41529 -73.98567 11257 ft 389 kts 40°
2026-05-06 20:33 45.43507 -73.95964 10786 ft 386 kts 40°
2026-05-06 20:33 45.45478 -73.93386 10300 ft 383 kts 40°
2026-05-06 20:33 45.47447 -73.90817 9816 ft 381 kts 40°
2026-05-06 20:33 45.49395 -73.88280 9289 ft 378 kts 40°
2026-05-06 20:34 45.51288 -73.85815 9002 ft 368 kts 40°
2026-05-06 20:34 45.53131 -73.83410 8996 ft 350 kts 40°
2026-05-06 20:34 45.54877 -73.81124 8963 ft 334 kts 40°
2026-05-06 20:34 45.56555 -73.78922 8826 ft 322 kts 40°
2026-05-06 20:35 45.58188 -73.76781 8499 ft 319 kts 40°
2026-05-06 20:35 45.59801 -73.74664 8075 ft 310 kts 40°
2026-05-06 20:35 45.61360 -73.72613 7658 ft 298 kts 40°
2026-05-06 20:35 45.62849 -73.70656 7262 ft 284 kts 40°
2026-05-06 20:36 45.64282 -73.68776 6638 ft 279 kts 40°
2026-05-06 20:36 45.65703 -73.66912 5887 ft 276 kts 40°
2026-05-06 20:36 45.67110 -73.65062 5130 ft 273 kts 40°
2026-05-06 20:36 45.68495 -73.63237 4381 ft 269 kts 41°
2026-05-06 20:37 45.69820 -73.61461 4055 ft 249 kts 46°
2026-05-06 20:37 45.70710 -73.59491 3956 ft 226 kts 68°
2026-05-06 20:37 45.71006 -73.57322 3961 ft 225 kts 88°
2026-05-06 20:37 45.70715 -73.55130 3919 ft 226 kts 111°
2026-05-06 20:38 45.69868 -73.53275 3860 ft 216 kts 134°
2026-05-06 20:38 45.68684 -73.52063 3798 ft 207 kts 155°
2026-05-06 20:38 45.67311 -73.51529 3748 ft 205 kts 176°
2026-05-06 20:38 45.65901 -73.51672 3732 ft 203 kts 191°
2026-05-06 20:39 45.64500 -73.51983 3685 ft 204 kts 190°
2026-05-06 20:39 45.63102 -73.52317 3636 ft 203 kts 195°
2026-05-06 20:39 45.61821 -73.53120 3587 ft 201 kts 214°
2026-05-06 20:39 45.60770 -73.54383 3484 ft 190 kts 225°
2026-05-06 20:40 45.59851 -73.55598 3388 ft 172 kts 225°
2026-05-06 20:40 45.58993 -73.56732 3218 ft 165 kts 226°
2026-05-06 20:40 45.58176 -73.57811 3020 ft 154 kts 225°
2026-05-06 20:40 45.57406 -73.58827 2815 ft 148 kts 224°
2026-05-06 20:41 45.56657 -73.59815 2614 ft 145 kts 224°
2026-05-06 20:41 45.55921 -73.60786 2436 ft 143 kts 225°
2026-05-06 20:41 45.55195 -73.61743 2232 ft 141 kts 224°
2026-05-06 20:41 45.54473 -73.62694 2036 ft 142 kts 224°
2026-05-06 20:42 45.53759 -73.63634 1836 ft 139 kts 224°
2026-05-06 20:42 45.53046 -73.64559 1686 ft 138 kts 223°
2026-05-06 20:42 45.52327 -73.65466 1590 ft 139 kts 222°
2026-05-06 20:42 45.51610 -73.66380 1407 ft 137 kts 224°
2026-05-06 20:43 45.50900 -73.67306 1171 ft 137 kts 224°
2026-05-06 20:43 45.50199 -73.68252 954 ft 139 kts 224°
2026-05-06 20:43 45.49509 -73.69212 747 ft 139 kts 224°
2026-05-06 20:43 45.48814 -73.70156 538 ft 138 kts 222°
2026-05-06 20:44 45.48098 -73.71068 317 ft 137 kts 223°
2026-05-06 20:44 45.47423 -73.71947 131 ft 126 kts 224°
2026-05-06 20:44 45.46871 -73.72692 115 ft 84 kts 223°
2026-05-06 20:44 45.46560 -73.73101 112 ft 47 kts 222°
2026-05-06 20:45 45.46332 -73.73398 112 ft 43 kts 223°
2026-05-06 20:45 45.46174 -73.73645 110 ft 27 kts 238°
2026-05-06 20:45 45.46149 -73.73901 106 ft 27 kts 264°
2026-05-06 20:45 45.46142 -73.74116 104 ft 20 kts 267°
2026-05-06 20:46 45.46092 -73.74256 103 ft 13 kts 229°
2026-05-06 20:46 45.46034 -73.74351 103 ft 12 kts 229°
2026-05-06 20:46 45.45995 -73.74454 102 ft 11 kts 246°
2026-05-06 20:46 45.45966 -73.74550 104 ft 10 kts 249°
2026-05-06 20:47 45.45958 -73.74658 105 ft 12 kts 277°
2026-05-06 20:47 45.45979 -73.74763 105 ft 8 kts 289°
2026-05-06 20:47 45.45983 -73.74839 105 ft 8 kts 267°
2026-05-06 20:47 45.45975 -73.74894 105 ft 2 kts 217°
2026-05-06 20:48 45.45960 -73.74898 104 ft 3 kts 187°
2026-05-06 20:48 45.45942 -73.74900 105 ft 2 kts 181°
2026-05-06 20:48 45.45932 -73.74900 105 ft 0 kts 180°